Location: Stony Creek
(40.9500°S, 175.8500°E)
Time: 08:58:04
(UTC+00:00)

Cosmos 2369 Rocket - Pass Details

Date: 15 May 2026
Orbit: 829 x 850 km, 71.0° (Epoch: 9 June)

Event Time Altitude Azimuth Distance (km) Brightness Sun altitude
Exits shadow 18:28:47 10° 271° (W) 2,475 4.0 -9.5°
Maximum altitude 18:29:10 10° 275° (W) 2,469 4.0 -9.4°
Drops below altitude 10° 18:29:45 10° 281° (W) 2,477 4.1 -9.3°
Sets 18:35:02 0° 322° (NW) 3,388 5.1 -8.3°
